Time,TemperatureF,DewpointF,PressureIn,WindDirection,WindDirectionDegrees,WindSpeedMPH,WindSpeedGustMPH,Humidity,HourlyPrecipIn,Conditions,Clouds,dailyrainin,SoftwareType,DateUTC
2013-01-12 00:00:00,56.6,56.6,30.21,WNW,291,2.0,4.0,100,0.00,,---,0.00,VWS V14.00,2013-01-12 05:00:00,
2013-01-12 00:01:00,56.6,56.6,30.21,WNW,291,0.0,2.0,100,0.00,,---,0.00,VWS V14.00,2013-01-12 05:01:00,
2013-01-12 00:03:00,56.6,56.6,30.21,WNW,291,1.0,3.0,100,0.00,,---,0.00,VWS V14.00,2013-01-12 05:03:00,
2013-01-12 00:08:00,56.6,56.6,30.21,WNW,291,2.0,3.0,100,0.00,,---,0.00,VWS V14.00,2013-01-12 05:08:00,
2013-01-12 00:13:00,56.6,56.6,30.21,West,279,1.0,5.0,100,0.00,,---,0.00,VWS V14.00,2013-01-12 05:13:00,
2013-01-12 00:18:00,56.5,56.5,30.21,West,279,0.0,5.0,100,0.00,,---,0.00,VWS V14.00,2013-01-12 05:18:00,
2013-01-12 00:23:00,56.5,56.5,30.21,West,279,1.0,5.0,100,0.00,,---,0.00,VWS V14.00,2013-01-12 05:23:00,
2013-01-12 00:28:00,56.5,56.5,30.21,West,279,3.0,5.0,100,0.00,,---,0.00,VWS V14.00,2013-01-12 05:28:00,
2013-01-12 00:33:00,56.4,56.4,30.21,West,279,0.0,2.0,100,0.00,,---,0.00,VWS V14.00,2013-01-12 05:33:00,
2013-01-12 00:38:00,56.4,56.4,30.21,West,279,0.0,2.0,100,0.00,,---,0.00,VWS V14.00,2013-01-12 05:38:00,
2013-01-12 00:43:00,56.4,56.4,30.20,West,279,0.0,5.0,100,0.00,,---,0.00,VWS V14.00,2013-01-12 05:43:00,
2013-01-12 00:48:00,56.4,56.4,30.20,West,267,1.0,5.0,100,0.00,,---,0.00,VWS V14.00,2013-01-12 05:48:00,
2013-01-12 00:53:00,56.3,56.3,30.20,West,267,3.0,5.0,100,0.00,,---,0.00,VWS V14.00,2013-01-12 05:53:00,
2013-01-12 00:58:00,56.3,56.3,30.20,West,267,1.0,5.0,100,0.00,,---,0.00,VWS V14.00,2013-01-12 05:58:00,
2013-01-12 01:03:00,56.2,56.2,30.21,WNW,285,6.0,6.0,100,0.00,,---,0.00,VWS V14.00,2013-01-12 06:03:00,
2013-01-12 01:08:00,56.2,56.2,30.20,WNW,285,0.0,6.0,100,0.00,,---,0.00,VWS V14.00,2013-01-12 06:08:00,
2013-01-12 01:13:00,56.1,56.1,30.20,WNW,285,0.0,6.0,100,0.00,,---,0.00,VWS V14.00,2013-01-12 06:13:00,
2013-01-12 01:18:00,56.0,56.0,30.20,WNW,285,0.0,6.0,100,0.00,,---,0.00,VWS V14.00,2013-01-12 06:18:00,
2013-01-12 01:23:00,56.0,56.0,30.20,WNW,285,0.0,6.0,100,0.00,,---,0.00,VWS V14.00,2013-01-12 06:23:00,
2013-01-12 01:28:00,55.9,55.9,30.20,WNW,285,0.0,6.0,100,0.00,,---,0.00,VWS V14.00,2013-01-12 06:28:00,
2013-01-12 01:33:00,55.8,55.8,30.21,WNW,285,1.0,1.0,100,0.00,,---,0.00,VWS V14.00,2013-01-12 06:33:00,
2013-01-12 01:38:00,55.7,55.7,30.20,WNW,285,0.0,1.0,100,0.00,,---,0.00,VWS V14.00,2013-01-12 06:38:00,
2013-01-12 01:43:00,55.7,55.7,30.21,WNW,285,0.0,1.0,100,0.00,,---,0.00,VWS V14.00,2013-01-12 06:43:00,
2013-01-12 01:48:00,55.6,55.6,30.20,WNW,285,0.0,1.0,100,0.00,,---,0.00,VWS V14.00,2013-01-12 06:48:00,
2013-01-12 01:53:00,55.5,55.5,30.20,WNW,285,0.0,1.0,100,0.00,,---,0.00,VWS V14.00,2013-01-12 06:53:00,
2013-01-12 01:58:00,55.4,55.4,30.20,WNW,285,0.0,1.0,100,0.00,,---,0.00,VWS V14.00,2013-01-12 06:58:00,
2013-01-12 02:03:00,55.3,55.3,30.20,WNW,285,0.0,0.0,100,0.00,,---,0.00,VWS V14.00,2013-01-12 07:03:00,
2013-01-12 02:08:00,55.3,55.3,30.20,WNW,285,0.0,0.0,100,0.00,,---,0.00,VWS V14.00,2013-01-12 07:08:00,
2013-01-12 02:13:00,55.2,55.2,30.20,WNW,285,0.0,0.0,100,0.00,,---,0.00,VWS V14.00,2013-01-12 07:13:00,
2013-01-12 02:18:00,55.2,55.2,30.20,WNW,285,0.0,0.0,100,0.00,,---,0.00,VWS V14.00,2013-01-12 07:18:00,
2013-01-12 02:23:00,55.2,55.2,30.20,WNW,285,0.0,0.0,100,0.00,,---,0.00,VWS V14.00,2013-01-12 07:23:00,
2013-01-12 02:28:00,55.2,55.2,30.20,WNW,285,0.0,0.0,100,0.00,,---,0.00,VWS V14.00,2013-01-12 07:28:00,
2013-01-12 02:33:00,55.2,55.2,30.20,WNW,285,0.0,0.0,100,0.00,,---,0.00,VWS V14.00,2013-01-12 07:33:00,
2013-01-12 02:38:00,55.2,55.2,30.20,WNW,285,0.0,0.0,100,0.00,,---,0.00,VWS V14.00,2013-01-12 07:38:00,
2013-01-12 02:43:00,55.2,55.2,30.20,WNW,285,0.0,0.0,100,0.00,,---,0.00,VWS V14.00,2013-01-12 07:43:00,
2013-01-12 02:48:00,55.2,55.2,30.20,WNW,285,0.0,0.0,100,0.00,,---,0.00,VWS V14.00,2013-01-12 07:48:00,
2013-01-12 02:53:00,55.2,55.2,30.20,WNW,285,0.0,0.0,100,0.00,,---,0.00,VWS V14.00,2013-01-12 07:53:00,
2013-01-12 02:58:00,55.3,55.3,30.20,WNW,285,0.0,0.0,100,0.00,,---,0.00,VWS V14.00,2013-01-12 07:58:00,
2013-01-12 03:03:00,55.4,55.4,30.20,WNW,285,0.0,0.0,100,0.00,,---,0.00,VWS V14.00,2013-01-12 08:03:00,
2013-01-12 03:08:00,55.4,55.4,30.20,WNW,285,0.0,0.0,100,0.00,,---,0.00,VWS V14.00,2013-01-12 08:08:00,
2013-01-12 03:13:00,55.5,55.5,30.20,WNW,285,0.0,0.0,100,0.00,,---,0.00,VWS V14.00,2013-01-12 08:13:00,
2013-01-12 03:18:00,55.4,55.4,30.20,WNW,285,0.0,0.0,100,0.00,,---,0.00,VWS V14.00,2013-01-12 08:18:00,
2013-01-12 03:23:00,55.3,55.3,30.20,WNW,285,0.0,0.0,100,0.00,,---,0.00,VWS V14.00,2013-01-12 08:23:00,
2013-01-12 03:28:00,55.2,55.2,30.20,WNW,285,0.0,0.0,100,0.00,,---,0.00,VWS V14.00,2013-01-12 08:28:00,
2013-01-12 03:33:00,55.1,55.1,30.20,WNW,285,0.0,0.0,100,0.00,,---,0.00,VWS V14.00,2013-01-12 08:33:00,
2013-01-12 03:38:00,55.0,55.0,30.20,WNW,285,0.0,0.0,100,0.00,,---,0.00,VWS V14.00,2013-01-12 08:38:00,
2013-01-12 03:43:00,55.0,55.0,30.20,WNW,285,0.0,0.0,100,0.00,,---,0.00,VWS V14.00,2013-01-12 08:43:00,
2013-01-12 03:48:00,54.9,54.9,30.20,WNW,285,0.0,0.0,100,0.00,,---,0.00,VWS V14.00,2013-01-12 08:48:00,
2013-01-12 03:53:00,54.8,54.8,30.20,WNW,285,0.0,0.0,100,0.00,,---,0.00,VWS V14.00,2013-01-12 08:53:00,
2013-01-12 03:58:00,54.8,54.8,30.20,WNW,285,0.0,0.0,100,0.00,,---,0.00,VWS V14.00,2013-01-12 08:58:00,
2013-01-12 04:03:00,54.7,54.7,30.19,WNW,285,0.0,0.0,100,0.00,,---,0.00,VWS V14.00,2013-01-12 09:03:00,
2013-01-12 04:08:00,54.6,54.6,30.19,WNW,285,0.0,0.0,100,0.00,,---,0.00,VWS V14.00,2013-01-12 09:08:00,
2013-01-12 04:13:00,54.5,54.5,30.19,WNW,285,0.0,0.0,100,0.00,,---,0.00,VWS V14.00,2013-01-12 09:13:00,
2013-01-12 04:18:00,54.4,54.4,30.20,WNW,285,0.0,0.0,100,0.00,,---,0.00,VWS V14.00,2013-01-12 09:18:00,
2013-01-12 04:23:00,54.3,54.3,30.19,WNW,285,0.0,0.0,100,0.00,,---,0.00,VWS V14.00,2013-01-12 09:23:00,
2013-01-12 04:28:00,54.3,54.3,30.19,WNW,285,0.0,0.0,100,0.00,,---,0.00,VWS V14.00,2013-01-12 09:28:00,
2013-01-12 04:33:00,54.3,54.3,30.19,WNW,283,0.0,0.0,100,0.00,,---,0.00,VWS V14.00,2013-01-12 09:33:00,
2013-01-12 04:38:00,54.7,54.7,30.19,WSW,248,2.0,5.0,100,0.00,,---,0.00,VWS V14.00,2013-01-12 09:38:00,
2013-01-12 04:43:00,54.9,54.9,30.18,WSW,240,4.0,6.0,100,0.00,,---,0.00,VWS V14.00,2013-01-12 09:43:00,
2013-01-12 04:48:00,55.1,55.1,30.18,SW,235,6.0,6.0,100,0.00,,---,0.00,VWS V14.00,2013-01-12 09:48:00,
2013-01-12 04:53:00,55.1,55.1,30.18,WSW,245,3.0,7.0,100,0.00,,---,0.00,VWS V14.00,2013-01-12 09:53:00,
2013-01-12 04:58:00,55.1,55.1,30.18,WSW,245,1.0,7.0,100,0.00,,---,0.00,VWS V14.00,2013-01-12 09:58:00,
2013-01-12 05:03:00,55.1,55.1,30.18,WSW,245,1.0,5.0,100,0.00,,---,0.00,VWS V14.00,2013-01-12 10:03:00,
2013-01-12 05:08:00,55.1,55.1,30.18,WSW,245,2.0,5.0,100,0.00,,---,0.00,VWS V14.00,2013-01-12 10:08:00,
2013-01-12 05:13:00,55.1,55.1,30.18,WSW,248,1.0,5.0,100,0.00,,---,0.00,VWS V14.00,2013-01-12 10:13:00,
2013-01-12 05:18:00,55.1,55.1,30.18,WSW,239,2.0,6.0,100,0.00,,---,0.00,VWS V14.00,2013-01-12 10:18:00,
2013-01-12 05:23:00,55.1,55.1,30.18,WSW,238,3.0,6.0,100,0.00,,---,0.00,VWS V14.00,2013-01-12 10:23:00,
2013-01-12 05:28:00,55.1,55.1,30.18,WSW,239,4.0,6.0,100,0.00,,---,0.00,VWS V14.00,2013-01-12 10:28:00,
2013-01-12 05:33:00,55.0,55.0,30.18,WSW,238,5.0,6.0,100,0.00,,---,0.00,VWS V14.00,2013-01-12 10:33:00,
2013-01-12 05:38:00,55.0,55.0,30.19,WSW,239,3.0,6.0,100,0.00,,---,0.00,VWS V14.00,2013-01-12 10:38:00,
2013-01-12 05:43:00,55.0,55.0,30.19,WSW,239,3.0,6.0,100,0.00,,---,0.00,VWS V14.00,2013-01-12 10:43:00,
2013-01-12 05:48:00,55.1,55.1,30.19,WSW,239,2.0,6.0,100,0.00,,---,0.00,VWS V14.00,2013-01-12 10:48:00,
2013-01-12 05:53:00,55.1,55.1,30.20,WSW,240,2.0,6.0,100,0.00,,---,0.00,VWS V14.00,2013-01-12 10:53:00,
2013-01-12 05:58:00,55.1,55.1,30.19,WSW,240,1.0,6.0,100,0.00,,---,0.00,VWS V14.00,2013-01-12 10:58:00,
2013-01-12 06:03:00,55.1,55.1,30.20,WSW,240,1.0,2.0,100,0.00,,---,0.00,VWS V14.00,2013-01-12 11:03:00,
2013-01-12 06:08:00,55.1,55.1,30.20,WSW,240,2.0,3.0,100,0.00,,---,0.00,VWS V14.00,2013-01-12 11:08:00,
2013-01-12 06:13:00,55.2,55.2,30.20,WSW,240,2.0,4.0,100,0.00,,---,0.00,VWS V14.00,2013-01-12 11:13:00,
2013-01-12 06:18:00,55.2,55.2,30.20,WSW,240,1.0,4.0,100,0.00,,---,0.00,VWS V14.00,2013-01-12 11:18:00,
2013-01-12 06:23:00,55.1,55.1,30.20,WSW,240,1.0,4.0,100,0.00,,---,0.00,VWS V14.00,2013-01-12 11:23:00,
2013-01-12 06:28:00,55.1,55.1,30.20,WSW,240,0.0,4.0,100,0.00,,---,0.00,VWS V14.00,2013-01-12 11:28:00,
2013-01-12 06:33:00,55.0,55.0,30.20,WSW,240,0.0,0.0,100,0.00,,---,0.00,VWS V14.00,2013-01-12 11:33:00,
2013-01-12 06:38:00,54.9,54.9,30.20,WSW,240,0.0,0.0,100,0.00,,---,0.00,VWS V14.00,2013-01-12 11:38:00,
2013-01-12 06:43:00,54.9,54.9,30.20,WSW,240,0.0,0.0,100,0.00,,---,0.00,VWS V14.00,2013-01-12 11:43:00,
2013-01-12 06:48:00,54.8,54.8,30.20,WSW,240,0.0,0.0,100,0.00,,---,0.00,VWS V14.00,2013-01-12 11:48:00,
2013-01-12 06:53:00,54.8,54.8,30.20,WSW,240,0.0,0.0,100,0.00,,---,0.00,VWS V14.00,2013-01-12 11:53:00,
2013-01-12 06:58:00,54.7,54.7,30.20,WSW,240,0.0,0.0,100,0.00,,---,0.00,VWS V14.00,2013-01-12 11:58:00,
2013-01-12 07:03:00,54.7,54.7,30.21,WSW,240,0.0,0.0,100,0.00,,---,0.00,VWS V14.00,2013-01-12 12:03:00,
2013-01-12 07:08:00,54.7,54.7,30.21,WSW,240,0.0,0.0,100,0.00,,---,0.00,VWS V14.00,2013-01-12 12:08:00,
2013-01-12 07:13:00,54.7,54.7,30.21,WSW,240,0.0,0.0,100,0.00,,---,0.00,VWS V14.00,2013-01-12 12:13:00,
2013-01-12 07:18:00,54.6,54.6,30.21,WSW,240,0.0,0.0,100,0.00,,---,0.00,VWS V14.00,2013-01-12 12:18:00,
2013-01-12 07:23:00,54.6,54.6,30.22,WSW,240,0.0,0.0,100,0.00,,---,0.00,VWS V14.00,2013-01-12 12:23:00,
2013-01-12 07:28:00,54.5,54.5,30.22,WSW,240,0.0,0.0,100,0.00,,---,0.00,VWS V14.00,2013-01-12 12:28:00,
2013-01-12 07:33:00,54.5,54.5,30.21,WSW,240,0.0,0.0,100,0.00,,---,0.00,VWS V14.00,2013-01-12 12:33:00,
2013-01-12 07:38:00,54.5,54.5,30.22,SW,223,0.0,0.0,100,0.00,,---,0.00,VWS V14.00,2013-01-12 12:38:00,
2013-01-12 07:43:00,54.5,54.5,30.22,SW,223,0.0,0.0,100,0.00,,---,0.00,VWS V14.00,2013-01-12 12:43:00,
2013-01-12 07:48:00,54.5,54.5,30.22,WSW,241,0.0,0.0,100,0.00,,---,0.00,VWS V14.00,2013-01-12 12:48:00,
2013-01-12 07:53:00,54.4,54.4,30.22,WSW,244,0.0,0.0,100,0.00,,---,0.00,VWS V14.00,2013-01-12 12:53:00,
2013-01-12 07:58:00,54.4,54.4,30.21,WSW,244,0.0,0.0,100,0.00,,---,0.00,VWS V14.00,2013-01-12 12:58:00,
2013-01-12 08:03:00,54.4,54.4,30.21,WSW,244,0.0,0.0,100,0.00,,---,0.00,VWS V14.00,2013-01-12 13:03:00,
2013-01-12 08:08:00,54.4,54.4,30.22,WSW,244,0.0,0.0,100,0.00,,---,0.00,VWS V14.00,2013-01-12 13:08:00,
2013-01-12 08:13:00,54.5,54.5,30.22,WSW,244,0.0,0.0,100,0.00,,---,0.00,VWS V14.00,2013-01-12 13:13:00,
2013-01-12 08:18:00,54.7,54.7,30.22,WSW,244,0.0,0.0,100,0.00,,---,0.00,VWS V14.00,2013-01-12 13:18:00,
2013-01-12 08:23:00,54.9,54.9,30.22,WSW,244,2.0,6.0,100,0.00,,---,0.00,VWS V14.00,2013-01-12 13:23:00,
2013-01-12 08:28:00,55.0,55.0,30.22,WSW,244,1.0,6.0,100,0.00,,---,0.00,VWS V14.00,2013-01-12 13:28:00,
2013-01-12 08:33:00,55.1,55.1,30.22,WSW,244,0.0,0.0,100,0.00,,---,0.00,VWS V14.00,2013-01-12 13:33:00,
2013-01-12 08:38:00,55.3,55.3,30.22,WSW,244,0.0,0.0,100,0.00,,---,0.00,VWS V14.00,2013-01-12 13:38:00,
2013-01-12 08:43:00,55.3,55.3,30.22,WSW,244,0.0,0.0,100,0.00,,---,0.00,VWS V14.00,2013-01-12 13:43:00,
2013-01-12 08:48:00,55.4,55.4,30.22,WSW,244,0.0,0.0,100,0.00,,---,0.00,VWS V14.00,2013-01-12 13:48:00,
2013-01-12 08:53:00,55.5,55.5,30.22,WSW,244,1.0,2.0,100,0.00,,---,0.00,VWS V14.00,2013-01-12 13:53:00,
2013-01-12 08:58:00,55.6,55.6,30.22,WSW,244,2.0,3.0,100,0.00,,---,0.00,VWS V14.00,2013-01-12 13:58:00,
2013-01-12 09:03:00,55.7,55.7,30.22,WSW,244,3.0,3.0,100,0.00,,---,0.00,VWS V14.00,2013-01-12 14:03:00,
2013-01-12 09:08:00,55.8,55.8,30.22,WSW,244,2.0,3.0,100,0.00,,---,0.00,VWS V14.00,2013-01-12 14:08:00,
2013-01-12 09:13:00,55.9,55.9,30.22,WSW,244,1.0,3.0,100,0.00,,---,0.00,VWS V14.00,2013-01-12 14:13:00,
2013-01-12 09:18:00,55.9,55.9,30.23,WSW,244,0.0,3.0,100,0.00,,---,0.00,VWS V14.00,2013-01-12 14:18:00,
2013-01-12 09:23:00,55.9,55.9,30.23,WSW,244,1.0,3.0,100,0.00,,---,0.00,VWS V14.00,2013-01-12 14:23:00,
2013-01-12 09:28:00,55.8,55.8,30.23,WSW,244,0.0,3.0,100,0.00,,---,0.00,VWS V14.00,2013-01-12 14:28:00,
2013-01-12 09:33:00,55.8,55.8,30.23,WSW,244,0.0,0.0,100,0.00,,---,0.00,VWS V14.00,2013-01-12 14:33:00,
2013-01-12 09:38:00,55.8,55.8,30.23,WSW,244,0.0,0.0,100,0.00,,---,0.00,VWS V14.00,2013-01-12 14:38:00,
2013-01-12 09:43:00,55.8,55.8,30.23,WSW,244,0.0,0.0,100,0.00,,---,0.00,VWS V14.00,2013-01-12 14:43:00,
2013-01-12 09:48:00,55.8,55.8,30.23,WSW,244,0.0,0.0,100,0.00,,---,0.00,VWS V14.00,2013-01-12 14:48:00,
2013-01-12 09:53:00,56.0,56.0,30.24,WSW,244,0.0,0.0,100,0.00,,---,0.00,VWS V14.00,2013-01-12 14:53:00,
2013-01-12 09:58:00,56.1,56.1,30.24,WSW,244,0.0,0.0,100,0.00,,---,0.00,VWS V14.00,2013-01-12 14:58:00,
2013-01-12 10:03:00,56.1,56.1,30.23,WSW,244,0.0,0.0,100,0.00,,---,0.00,VWS V14.00,2013-01-12 15:03:00,
2013-01-12 10:08:00,56.2,56.2,30.23,WSW,244,0.0,0.0,100,0.00,,---,0.00,VWS V14.00,2013-01-12 15:08:00,
2013-01-12 10:13:00,56.2,56.2,30.24,WSW,244,0.0,0.0,100,0.00,,---,0.00,VWS V14.00,2013-01-12 15:13:00,
2013-01-12 10:18:00,56.4,56.4,30.23,WSW,244,0.0,0.0,100,0.00,,---,0.00,VWS V14.00,2013-01-12 15:18:00,
2013-01-12 10:23:00,56.5,56.5,30.23,WSW,244,0.0,0.0,100,0.00,,---,0.00,VWS V14.00,2013-01-12 15:23:00,
2013-01-12 10:28:00,56.6,56.6,30.23,WSW,244,0.0,0.0,100,0.00,,---,0.00,VWS V14.00,2013-01-12 15:28:00,
2013-01-12 10:33:00,56.9,56.9,30.23,WSW,244,2.0,3.0,100,0.00,,---,0.00,VWS V14.00,2013-01-12 15:33:00,
2013-01-12 10:38:00,57.2,57.2,30.23,WSW,245,1.0,4.0,100,0.00,,---,0.00,VWS V14.00,2013-01-12 15:38:00,
2013-01-12 10:43:00,57.5,57.5,30.22,WSW,245,4.0,5.0,100,0.00,,---,0.00,VWS V14.00,2013-01-12 15:43:00,
2013-01-12 10:48:00,58.0,58.0,30.22,WSW,237,5.0,7.0,100,0.00,,---,0.00,VWS V14.00,2013-01-12 15:48:00,
2013-01-12 10:53:00,57.9,57.9,30.22,WSW,244,4.0,7.0,100,0.00,,---,0.00,VWS V14.00,2013-01-12 15:53:00,
2013-01-12 10:58:00,57.9,57.9,30.22,WSW,246,3.0,7.0,100,0.00,,---,0.00,VWS V14.00,2013-01-12 15:58:00,
2013-01-12 11:03:00,57.9,57.9,30.22,WSW,246,2.0,4.0,100,0.00,,---,0.00,VWS V14.00,2013-01-12 16:03:00,
2013-01-12 11:08:00,57.9,57.9,30.21,WSW,246,2.0,4.0,100,0.00,,---,0.00,VWS V14.00,2013-01-12 16:08:00,
2013-01-12 11:13:00,58.0,58.0,30.20,WSW,247,2.0,4.0,100,0.00,,---,0.00,VWS V14.00,2013-01-12 16:13:00,
2013-01-12 11:18:00,58.3,58.3,30.20,WSW,247,3.0,4.0,100,0.00,,---,0.00,VWS V14.00,2013-01-12 16:18:00,
2013-01-12 11:23:00,58.5,58.5,30.20,WSW,245,3.0,6.0,100,0.00,,---,0.00,VWS V14.00,2013-01-12 16:23:00,
2013-01-12 11:28:00,58.8,58.8,30.20,WSW,251,1.0,6.0,100,0.00,,---,0.00,VWS V14.00,2013-01-12 16:28:00,
2013-01-12 11:33:00,59.0,59.0,30.19,WSW,251,2.0,4.0,100,0.00,,---,0.00,VWS V14.00,2013-01-12 16:33:00,
2013-01-12 11:38:00,59.1,59.1,30.19,WSW,251,2.0,4.0,100,0.00,,---,0.00,VWS V14.00,2013-01-12 16:38:00,
2013-01-12 11:43:00,59.2,59.2,30.19,WSW,251,1.0,4.0,100,0.00,,---,0.00,VWS V14.00,2013-01-12 16:43:00,
2013-01-12 11:48:00,59.3,59.3,30.19,WSW,251,2.0,4.0,100,0.01,,---,0.01,VWS V14.00,2013-01-12 16:48:00,
2013-01-12 11:53:00,59.5,59.5,30.18,WSW,251,1.0,4.0,100,0.01,,---,0.01,VWS V14.00,2013-01-12 16:53:00,
2013-01-12 11:58:00,59.7,59.7,30.18,WSW,251,1.0,4.0,100,0.01,,---,0.01,VWS V14.00,2013-01-12 16:58:00,
2013-01-12 12:03:00,59.8,59.8,30.18,WSW,251,2.0,3.0,100,0.01,,---,0.01,VWS V14.00,2013-01-12 17:03:00,
2013-01-12 12:08:00,59.8,59.8,30.18,WSW,251,2.0,3.0,100,0.01,,---,0.01,VWS V14.00,2013-01-12 17:08:00,
2013-01-12 12:13:00,59.9,59.9,30.18,WSW,249,3.0,3.0,100,0.01,,---,0.01,VWS V14.00,2013-01-12 17:13:00,
2013-01-12 12:18:00,60.1,60.1,30.17,WSW,246,3.0,4.0,100,0.01,,---,0.01,VWS V14.00,2013-01-12 17:18:00,
2013-01-12 12:23:00,60.3,60.3,30.17,WSW,242,1.0,5.0,100,0.01,,---,0.01,VWS V14.00,2013-01-12 17:23:00,
2013-01-12 12:28:00,60.6,60.6,30.17,SW,236,5.0,5.0,100,0.00,,---,0.01,VWS V14.00,2013-01-12 17:28:00,
2013-01-12 12:33:00,60.7,60.7,30.17,SW,225,2.0,6.0,100,0.00,,---,0.01,VWS V14.00,2013-01-12 17:33:00,
2013-01-12 12:38:00,60.5,60.5,30.17,SW,222,2.0,6.0,100,0.00,,---,0.01,VWS V14.00,2013-01-12 17:38:00,
2013-01-12 12:43:00,60.4,60.4,30.17,SW,226,3.0,6.0,100,0.00,,---,0.01,VWS V14.00,2013-01-12 17:43:00,
2013-01-12 12:48:00,60.3,60.3,30.17,WSW,241,2.0,6.0,100,0.00,,---,0.01,VWS V14.00,2013-01-12 17:48:00,
2013-01-12 12:53:00,60.2,60.2,30.17,WSW,240,4.0,6.0,100,0.00,,---,0.01,VWS V14.00,2013-01-12 17:53:00,
2013-01-12 12:58:00,60.2,60.2,30.17,WSW,243,3.0,7.0,100,0.00,,---,0.01,VWS V14.00,2013-01-12 17:58:00,
2013-01-12 13:03:00,60.2,60.2,30.17,WSW,248,2.0,7.0,100,0.00,,---,0.01,VWS V14.00,2013-01-12 18:03:00,
2013-01-12 13:08:00,60.2,60.2,30.16,SW,236,6.0,7.0,100,0.00,,---,0.01,VWS V14.00,2013-01-12 18:08:00,
2013-01-12 13:13:00,60.2,60.2,30.16,WSW,242,2.0,7.0,100,0.00,,---,0.01,VWS V14.00,2013-01-12 18:13:00,
2013-01-12 13:18:00,60.2,60.2,30.16,WSW,247,2.0,7.0,100,0.00,,---,0.01,VWS V14.00,2013-01-12 18:18:00,
2013-01-12 13:23:00,60.3,60.3,30.16,WSW,245,3.0,7.0,100,0.00,,---,0.01,VWS V14.00,2013-01-12 18:23:00,
2013-01-12 13:28:00,60.5,60.5,30.16,WSW,247,3.0,7.0,100,0.00,,---,0.01,VWS V14.00,2013-01-12 18:28:00,
2013-01-12 13:33:00,60.6,60.6,30.16,WSW,242,3.0,6.0,100,0.00,,---,0.01,VWS V14.00,2013-01-12 18:33:00,
2013-01-12 13:38:00,60.8,60.8,30.16,WSW,245,5.0,6.0,100,0.00,,---,0.01,VWS V14.00,2013-01-12 18:38:00,
2013-01-12 13:43:00,60.9,60.9,30.15,WSW,250,3.0,6.0,100,0.00,,---,0.01,VWS V14.00,2013-01-12 18:43:00,
2013-01-12 13:48:00,61.1,61.1,30.15,SW,233,3.0,6.0,100,0.00,,---,0.01,VWS V14.00,2013-01-12 18:48:00,
2013-01-12 13:53:00,61.1,61.1,30.15,SW,230,3.0,6.0,100,0.00,,---,0.01,VWS V14.00,2013-01-12 18:53:00,
2013-01-12 13:58:00,61.3,61.3,30.15,SW,236,3.0,6.0,100,0.00,,---,0.01,VWS V14.00,2013-01-12 18:58:00,
2013-01-12 14:03:00,61.5,61.5,30.15,SW,233,6.0,8.0,100,0.00,,---,0.01,VWS V14.00,2013-01-12 19:03:00,
2013-01-12 14:08:00,61.8,61.8,30.15,WSW,238,7.0,10.0,100,0.00,,---,0.01,VWS V14.00,2013-01-12 19:08:00,
2013-01-12 14:13:00,61.7,61.7,30.15,SW,228,4.0,10.0,100,0.00,,---,0.01,VWS V14.00,2013-01-12 19:13:00,
2013-01-12 14:18:00,61.7,61.7,30.15,WSW,243,3.0,10.0,100,0.00,,---,0.01,VWS V14.00,2013-01-12 19:18:00,
2013-01-12 14:23:00,61.7,61.7,30.16,WSW,240,3.0,10.0,100,0.00,,---,0.01,VWS V14.00,2013-01-12 19:23:00,
2013-01-12 14:28:00,61.7,61.7,30.15,WSW,241,1.0,10.0,100,0.00,,---,0.01,VWS V14.00,2013-01-12 19:28:00,
2013-01-12 14:33:00,61.7,61.7,30.15,WSW,242,1.0,3.0,100,0.00,,---,0.01,VWS V14.00,2013-01-12 19:33:00,
2013-01-12 14:38:00,61.8,61.8,30.15,WSW,251,2.0,5.0,100,0.00,,---,0.01,VWS V14.00,2013-01-12 19:38:00,
2013-01-12 14:43:00,61.8,61.8,30.15,WSW,246,5.0,5.0,100,0.00,,---,0.01,VWS V14.00,2013-01-12 19:43:00,
2013-01-12 14:48:00,61.8,61.8,30.15,WSW,245,3.0,6.0,100,0.00,,---,0.01,VWS V14.00,2013-01-12 19:48:00,
2013-01-12 14:53:00,61.7,61.7,30.15,West,261,2.0,6.0,100,0.00,,---,0.01,VWS V14.00,2013-01-12 19:53:00,
2013-01-12 14:58:00,61.7,61.7,30.16,West,261,4.0,6.0,100,0.00,,---,0.01,VWS V14.00,2013-01-12 19:58:00,
2013-01-12 15:03:00,61.5,61.5,30.16,West,262,3.0,3.0,100,0.00,,---,0.01,VWS V14.00,2013-01-12 20:03:00,
2013-01-12 15:08:00,61.5,61.5,30.15,West,268,3.0,4.0,100,0.00,,---,0.01,VWS V14.00,2013-01-12 20:08:00,
2013-01-12 15:13:00,61.4,61.4,30.15,WSW,253,3.0,5.0,100,0.00,,---,0.01,VWS V14.00,2013-01-12 20:13:00,
2013-01-12 15:18:00,61.4,61.4,30.15,West,262,2.0,5.0,100,0.00,,---,0.01,VWS V14.00,2013-01-12 20:18:00,
2013-01-12 15:23:00,61.4,61.4,30.15,West,263,4.0,5.0,100,0.00,,---,0.01,VWS V14.00,2013-01-12 20:23:00,
2013-01-12 15:28:00,61.5,61.5,30.15,West,263,2.0,5.0,100,0.00,,---,0.01,VWS V14.00,2013-01-12 20:28:00,
2013-01-12 15:33:00,61.5,61.5,30.15,West,262,1.0,4.0,100,0.00,,---,0.01,VWS V14.00,2013-01-12 20:33:00,
2013-01-12 15:38:00,61.7,61.7,30.15,West,262,1.0,4.0,100,0.00,,---,0.01,VWS V14.00,2013-01-12 20:38:00,
2013-01-12 15:43:00,61.6,61.6,30.15,West,263,3.0,4.0,100,0.00,,---,0.01,VWS V14.00,2013-01-12 20:43:00,
2013-01-12 15:48:00,61.7,61.7,30.15,West,263,1.0,4.0,100,0.00,,---,0.01,VWS V14.00,2013-01-12 20:48:00,
2013-01-12 15:53:00,61.8,61.8,30.15,West,263,2.0,4.0,100,0.00,,---,0.01,VWS V14.00,2013-01-12 20:53:00,
2013-01-12 15:58:00,61.9,61.9,30.16,West,263,3.0,4.0,100,0.00,,---,0.01,VWS V14.00,2013-01-12 20:58:00,
2013-01-12 16:03:00,61.9,61.9,30.16,West,261,5.0,6.0,100,0.00,,---,0.01,VWS V14.00,2013-01-12 21:03:00,
2013-01-12 16:08:00,62.0,62.0,30.16,West,260,2.0,6.0,100,0.00,,---,0.01,VWS V14.00,2013-01-12 21:08:00,
2013-01-12 16:13:00,61.9,61.9,30.16,WSW,257,2.0,6.0,100,0.00,,---,0.01,VWS V14.00,2013-01-12 21:13:00,
2013-01-12 16:18:00,61.8,61.8,30.16,WSW,257,2.0,6.0,100,0.00,,---,0.01,VWS V14.00,2013-01-12 21:18:00,
2013-01-12 16:23:00,61.7,61.7,30.16,WSW,257,2.0,6.0,100,0.00,,---,0.01,VWS V14.00,2013-01-12 21:23:00,
2013-01-12 16:28:00,61.6,61.6,30.16,WSW,257,1.0,6.0,100,0.00,,---,0.01,VWS V14.00,2013-01-12 21:28:00,
2013-01-12 16:33:00,61.5,61.5,30.17,WSW,257,0.0,2.0,100,0.00,,---,0.01,VWS V14.00,2013-01-12 21:33:00,
2013-01-12 16:38:00,61.0,61.0,30.17,West,259,1.0,2.0,100,0.00,,---,0.01,VWS V14.00,2013-01-12 21:38:00,
2013-01-12 16:43:00,60.6,60.6,30.17,West,260,1.0,2.0,100,0.00,,---,0.01,VWS V14.00,2013-01-12 21:43:00,
2013-01-12 16:48:00,60.3,60.3,30.17,West,260,0.0,2.0,100,0.00,,---,0.01,VWS V14.00,2013-01-12 21:48:00,
2013-01-12 16:53:00,60.2,60.2,30.17,West,260,0.0,2.0,100,0.00,,---,0.01,VWS V14.00,2013-01-12 21:53:00,
2013-01-12 16:58:00,60.2,60.2,30.17,West,260,0.0,2.0,100,0.00,,---,0.01,VWS V14.00,2013-01-12 21:58:00,
2013-01-12 17:03:00,60.2,60.2,30.17,West,260,0.0,0.0,100,0.00,,---,0.01,VWS V14.00,2013-01-12 22:03:00,
2013-01-12 17:07:00,60.2,60.2,30.17,West,260,0.0,0.0,100,0.00,,---,0.01,VWS V14.00,2013-01-12 22:07:00,
2013-01-12 17:12:00,60.1,60.1,30.17,West,260,0.0,0.0,100,0.00,,---,0.01,VWS V14.00,2013-01-12 22:12:00,
2013-01-12 17:17:00,60.0,60.0,30.17,West,260,0.0,0.0,100,0.00,,---,0.01,VWS V14.00,2013-01-12 22:17:00,
2013-01-12 17:22:00,60.0,60.0,30.17,West,260,0.0,0.0,100,0.00,,---,0.01,VWS V14.00,2013-01-12 22:22:00,
2013-01-12 17:28:00,59.8,59.8,30.17,West,260,0.0,0.0,100,0.00,,---,0.01,VWS V14.00,2013-01-12 22:28:00,
2013-01-12 17:33:00,59.8,59.8,30.17,West,260,0.0,0.0,100,0.00,,---,0.01,VWS V14.00,2013-01-12 22:33:00,
2013-01-12 17:38:00,59.7,59.7,30.17,West,260,0.0,0.0,100,0.00,,---,0.01,VWS V14.00,2013-01-12 22:38:00,
2013-01-12 17:43:00,59.6,59.6,30.17,ENE,62,0.0,3.0,100,0.00,,---,0.01,VWS V14.00,2013-01-12 22:43:00,
2013-01-12 17:48:00,59.5,59.5,30.17,ENE,62,0.0,3.0,100,0.00,,---,0.01,VWS V14.00,2013-01-12 22:48:00,
2013-01-12 17:53:00,59.4,59.4,30.17,ENE,62,0.0,3.0,100,0.00,,---,0.01,VWS V14.00,2013-01-12 22:53:00,
2013-01-12 17:58:00,59.3,59.3,30.17,ENE,62,0.0,3.0,100,0.00,,---,0.01,VWS V14.00,2013-01-12 22:58:00,
2013-01-12 18:03:00,59.2,59.2,30.18,ENE,62,0.0,0.0,100,0.00,,---,0.01,VWS V14.00,2013-01-12 23:03:00,
2013-01-12 18:08:00,59.2,59.2,30.18,ENE,62,0.0,0.0,100,0.00,,---,0.01,VWS V14.00,2013-01-12 23:08:00,
2013-01-12 18:13:00,59.0,59.0,30.18,ENE,62,0.0,0.0,100,0.00,,---,0.01,VWS V14.00,2013-01-12 23:13:00,
2013-01-12 18:18:00,59.0,59.0,30.17,ENE,62,0.0,0.0,100,0.00,,---,0.01,VWS V14.00,2013-01-12 23:18:00,
2013-01-12 18:23:00,58.9,58.9,30.17,ENE,63,0.0,1.0,100,0.00,,---,0.01,VWS V14.00,2013-01-12 23:23:00,
2013-01-12 18:28:00,58.8,58.8,30.17,ENE,63,0.0,1.0,100,0.00,,---,0.01,VWS V14.00,2013-01-12 23:28:00,
2013-01-12 18:33:00,58.7,58.7,30.17,ENE,63,0.0,0.0,100,0.00,,---,0.01,VWS V14.00,2013-01-12 23:33:00,
2013-01-12 18:38:00,58.6,58.6,30.17,ENE,63,0.0,0.0,100,0.00,,---,0.01,VWS V14.00,2013-01-12 23:38:00,
2013-01-12 18:43:00,58.5,58.5,30.17,ENE,63,0.0,0.0,100,0.00,,---,0.01,VWS V14.00,2013-01-12 23:43:00,
2013-01-12 18:48:00,58.4,58.4,30.18,ENE,63,0.0,0.0,100,0.00,,---,0.01,VWS V14.00,2013-01-12 23:48:00,
2013-01-12 18:53:00,58.3,58.3,30.17,ENE,63,0.0,0.0,100,0.00,,---,0.01,VWS V14.00,2013-01-12 23:53:00,
2013-01-12 18:58:00,58.2,58.2,30.18,ENE,63,0.0,0.0,100,0.00,,---,0.01,VWS V14.00,2013-01-12 23:58:00,
2013-01-12 19:03:00,58.2,58.2,30.17,ENE,64,0.0,0.0,100,0.00,,---,0.01,VWS V14.00,2013-01-13 00:03:00,
2013-01-12 19:07:00,58.1,58.1,30.17,ENE,64,0.0,0.0,100,0.00,,---,0.01,VWS V14.00,2013-01-13 00:07:00,
2013-01-12 19:12:00,58.1,58.1,30.17,ENE,63,0.0,0.0,100,0.00,,---,0.01,VWS V14.00,2013-01-13 00:12:00,
2013-01-12 19:17:00,58.0,58.0,30.17,ENE,63,0.0,0.0,100,0.00,,---,0.01,VWS V14.00,2013-01-13 00:17:00,
2013-01-12 19:23:00,57.9,57.9,30.17,ENE,63,0.0,0.0,100,0.00,,---,0.01,VWS V14.00,2013-01-13 00:23:00,
2013-01-12 19:28:00,57.8,57.8,30.17,ENE,63,0.0,0.0,100,0.00,,---,0.01,VWS V14.00,2013-01-13 00:28:00,
2013-01-12 19:33:00,57.7,57.7,30.17,ENE,63,0.0,0.0,100,0.00,,---,0.01,VWS V14.00,2013-01-13 00:33:00,
2013-01-12 19:38:00,57.6,57.6,30.17,ENE,64,0.0,0.0,100,0.00,,---,0.01,VWS V14.00,2013-01-13 00:38:00,
2013-01-12 19:43:00,57.5,57.5,30.17,ENE,63,0.0,0.0,100,0.00,,---,0.01,VWS V14.00,2013-01-13 00:43:00,
2013-01-12 19:48:00,57.5,57.5,30.17,ENE,64,0.0,0.0,100,0.00,,---,0.01,VWS V14.00,2013-01-13 00:48:00,
2013-01-12 19:53:00,57.4,57.4,30.17,ENE,63,0.0,0.0,100,0.00,,---,0.01,VWS V14.00,2013-01-13 00:53:00,
2013-01-12 19:58:00,57.3,57.3,30.17,ENE,64,0.0,0.0,100,0.00,,---,0.01,VWS V14.00,2013-01-13 00:58:00,
2013-01-12 20:03:00,57.2,57.2,30.17,ENE,64,0.0,0.0,100,0.00,,---,0.01,VWS V14.00,2013-01-13 01:03:00,
2013-01-12 20:08:00,57.2,57.2,30.17,ENE,64,0.0,0.0,100,0.00,,---,0.01,VWS V14.00,2013-01-13 01:08:00,
2013-01-12 20:13:00,57.1,57.1,30.17,ENE,64,0.0,0.0,100,0.00,,---,0.01,VWS V14.00,2013-01-13 01:13:00,
2013-01-12 20:18:00,57.0,57.0,30.17,ENE,63,0.0,0.0,100,0.00,,---,0.01,VWS V14.00,2013-01-13 01:18:00,
2013-01-12 20:23:00,57.0,57.0,30.17,ENE,63,0.0,0.0,100,0.00,,---,0.01,VWS V14.00,2013-01-13 01:23:00,
2013-01-12 20:28:00,56.9,56.9,30.17,ENE,63,0.0,0.0,100,0.00,,---,0.01,VWS V14.00,2013-01-13 01:28:00,
2013-01-12 20:33:00,56.9,56.9,30.17,ENE,64,0.0,0.0,100,0.00,,---,0.01,VWS V14.00,2013-01-13 01:33:00,
2013-01-12 20:38:00,56.9,56.9,30.16,ENE,64,0.0,0.0,100,0.00,,---,0.01,VWS V14.00,2013-01-13 01:38:00,
2013-01-12 20:43:00,56.9,56.9,30.16,ENE,64,0.0,0.0,100,0.00,,---,0.01,VWS V14.00,2013-01-13 01:43:00,
2013-01-12 20:48:00,56.9,56.9,30.17,ENE,64,0.0,0.0,100,0.00,,---,0.01,VWS V14.00,2013-01-13 01:48:00,
2013-01-12 20:53:00,56.8,56.8,30.17,ENE,63,0.0,0.0,100,0.00,,---,0.01,VWS V14.00,2013-01-13 01:53:00,
2013-01-12 20:58:00,56.7,56.7,30.17,ENE,64,0.0,0.0,100,0.00,,---,0.01,VWS V14.00,2013-01-13 01:58:00,
2013-01-12 21:03:00,56.7,56.7,30.17,ENE,64,0.0,0.0,100,0.00,,---,0.01,VWS V14.00,2013-01-13 02:03:00,
2013-01-12 21:08:00,56.7,56.7,30.17,ENE,64,0.0,0.0,100,0.00,,---,0.01,VWS V14.00,2013-01-13 02:08:00,
2013-01-12 21:13:00,56.8,56.8,30.17,ENE,64,0.0,0.0,100,0.00,,---,0.01,VWS V14.00,2013-01-13 02:13:00,
2013-01-12 21:18:00,56.9,56.9,30.17,ENE,63,0.0,0.0,100,0.00,,---,0.01,VWS V14.00,2013-01-13 02:18:00,
2013-01-12 21:23:00,56.9,56.9,30.17,ENE,63,0.0,0.0,100,0.00,,---,0.01,VWS V14.00,2013-01-13 02:23:00,
2013-01-12 21:28:00,56.9,56.9,30.17,ENE,64,0.0,0.0,100,0.00,,---,0.01,VWS V14.00,2013-01-13 02:28:00,
2013-01-12 21:33:00,56.8,56.8,30.17,ENE,63,0.0,0.0,100,0.00,,---,0.01,VWS V14.00,2013-01-13 02:33:00,
2013-01-12 21:38:00,56.8,56.8,30.17,ENE,64,0.0,0.0,100,0.00,,---,0.01,VWS V14.00,2013-01-13 02:38:00,
2013-01-12 21:43:00,56.8,56.8,30.17,ENE,64,0.0,0.0,100,0.00,,---,0.01,VWS V14.00,2013-01-13 02:43:00,
2013-01-12 21:48:00,56.8,56.8,30.17,ENE,64,0.0,0.0,100,0.00,,---,0.01,VWS V14.00,2013-01-13 02:48:00,
2013-01-12 21:53:00,56.7,56.7,30.17,ENE,64,0.0,0.0,100,0.00,,---,0.01,VWS V14.00,2013-01-13 02:53:00,
2013-01-12 21:58:00,56.6,56.6,30.17,ENE,64,0.0,0.0,100,0.00,,---,0.01,VWS V14.00,2013-01-13 02:58:00,
2013-01-12 22:03:00,56.6,56.6,30.17,ENE,63,0.0,0.0,100,0.00,,---,0.01,VWS V14.00,2013-01-13 03:03:00,
2013-01-12 22:08:00,56.5,56.5,30.16,ENE,64,0.0,0.0,100,0.00,,---,0.01,VWS V14.00,2013-01-13 03:08:00,
2013-01-12 22:13:00,56.5,56.5,30.16,ENE,64,2.0,2.0,100,0.00,,---,0.01,VWS V14.00,2013-01-13 03:13:00,
2013-01-12 22:18:00,56.7,56.7,30.16,ENE,64,1.0,2.0,100,0.00,,---,0.01,VWS V14.00,2013-01-13 03:18:00,
2013-01-12 22:23:00,56.7,56.7,30.16,ENE,66,1.0,3.0,100,0.00,,---,0.01,VWS V14.00,2013-01-13 03:23:00,
2013-01-12 22:28:00,56.9,56.9,30.16,ENE,67,1.0,3.0,100,0.00,,---,0.01,VWS V14.00,2013-01-13 03:28:00,
2013-01-12 22:33:00,56.9,56.9,30.17,ENE,67,1.0,2.0,100,0.00,,---,0.01,VWS V14.00,2013-01-13 03:33:00,
2013-01-12 22:38:00,56.9,56.9,30.16,ENE,67,0.0,2.0,100,0.00,,---,0.01,VWS V14.00,2013-01-13 03:38:00,
2013-01-12 22:43:00,57.0,57.0,30.17,ENE,67,0.0,2.0,100,0.00,,---,0.01,VWS V14.00,2013-01-13 03:43:00,
2013-01-12 22:48:00,57.1,57.1,30.17,ENE,67,0.0,2.0,100,0.00,,---,0.01,VWS V14.00,2013-01-13 03:48:00,
2013-01-12 22:53:00,57.1,57.1,30.17,ENE,67,0.0,2.0,100,0.00,,---,0.01,VWS V14.00,2013-01-13 03:53:00,
2013-01-12 22:58:00,57.1,57.1,30.17,ENE,67,0.0,2.0,100,0.00,,---,0.01,VWS V14.00,2013-01-13 03:58:00,
2013-01-12 23:03:00,57.0,57.0,30.17,ENE,67,0.0,0.0,100,0.00,,---,0.01,VWS V14.00,2013-01-13 04:03:00,
2013-01-12 23:08:00,56.9,56.9,30.17,ENE,67,0.0,0.0,100,0.00,,---,0.01,VWS V14.00,2013-01-13 04:08:00,
2013-01-12 23:13:00,56.9,56.9,30.16,ENE,67,0.0,0.0,100,0.00,,---,0.01,VWS V14.00,2013-01-13 04:13:00,
2013-01-12 23:18:00,56.9,56.9,30.17,ENE,67,0.0,0.0,100,0.00,,---,0.01,VWS V14.00,2013-01-13 04:18:00,
2013-01-12 23:23:00,56.9,56.9,30.17,ENE,67,0.0,0.0,100,0.00,,---,0.01,VWS V14.00,2013-01-13 04:23:00,
2013-01-12 23:28:00,56.9,56.9,30.17,ENE,67,0.0,0.0,100,0.00,,---,0.01,VWS V14.00,2013-01-13 04:28:00,
2013-01-12 23:33:00,56.9,56.9,30.17,ENE,67,0.0,0.0,100,0.00,,---,0.01,VWS V14.00,2013-01-13 04:33:00,
2013-01-12 23:38:00,56.9,56.9,30.17,ENE,67,0.0,0.0,100,0.00,,---,0.01,VWS V14.00,2013-01-13 04:38:00,
2013-01-12 23:43:00,56.8,56.8,30.17,ENE,67,0.0,0.0,100,0.00,,---,0.01,VWS V14.00,2013-01-13 04:43:00,
2013-01-12 23:48:00,56.8,56.8,30.17,ENE,67,0.0,0.0,100,0.00,,---,0.01,VWS V14.00,2013-01-13 04:48:00,
2013-01-12 23:53:00,56.8,56.8,30.17,ENE,67,0.0,0.0,100,0.00,,---,0.01,VWS V14.00,2013-01-13 04:53:00,
2013-01-12 23:58:00,56.8,56.8,30.17,ENE,67,0.0,0.0,100,0.00,,---,0.01,VWS V14.00,2013-01-13 04:58:00,